This demonstration page uses our WeatherBlox Daily Observations layout. Learn more.

Left ArrowRight Arrow

Hourly Observations for October 23, 2015

Temp ( °F °C ) Dew Point ( °F °C ) Humidity (%) Winds ( mph kmh ) Pressure ( in mb ) Visibility ( mi km ) Precip ( " mm )
12:53 am 00:53 Clear 56 13.3 52 11.1 87 87 Calm 30.24 1024 10 16 0.00 0.00
1:53 am 01:53 Clear 52 11.1 49 9.4 89 89 Calm 30.23 1024 9 14 0.00 0.00
2:53 am 02:53 Clear 51 10.6 49 9.4 92 92 Calm 30.23 1024 7 11 0.00 0.00
3:53 am 03:53 Clear with Mist and Fog 50 10 48 8.9 93 93 Calm 30.23 1024 4 6 0.00 0.00
4:53 am 04:53 Clear 49 9.4 47 8.3 93 93 Calm 30.22 1024 7 11 0.00 0.00
5:53 am 05:53 Clear with Mist and Fog 49 9.4 47 8.3 93 93 Calm 30.22 1024 6 10 0.00 0.00
6:53 am 06:53 Clear 49 9.4 47 8.3 93 93 Calm 30.24 1024 8 13 0.00 0.00
7:53 am 07:53 Clear 48 8.9 46 7.8 93 93 Calm 30.25 1024 10 16 0.00 0.00
8:53 am 08:53 Sunny 51 10.6 48 8.9 89 89 ENE 3 6 30.26 1025 10 16 0.00 0.00
9:53 am 09:53 Sunny 60 15.6 51 10.6 72 72 E 9 15 30.26 1025 9 14 0.00 0.00
10:53 am 10:53 Sunny 63 17.2 52 11.1 68 68 E 6 9 30.26 1025 9 14 0.00 0.00
11:53 am 11:53 Sunny 67 19.4 53 11.7 61 61 ESE 10 17 30.24 1024 10 16 0.00 0.00
12:53 pm 12:53 Sunny 69 20.6 54 12.2 59 59 VRB 6 9 30.22 1023 10 16 0.00 0.00
1:53 pm 13:53 Sunny 73 22.8 55 12.8 53 53 ESE 7 11 30.18 1022 10 16 0.00 0.00
2:53 pm 14:53 Sunny 74 23.3 55 12.8 52 52 VRB 5 7 30.15 1021 10 16 0.00 0.00
3:53 pm 15:53 Sunny 75 23.9 56 13.3 52 52 ESE 8 13 30.13 1020 10 16 0.00 0.00
4:53 pm 16:53 Sunny 75 23.9 56 13.3 52 52 SE 6 9 30.11 1020 10 16 0.00 0.00
5:53 pm 17:53 Sunny 74 23.3 57 13.9 56 56 ESE 5 7 30.10 1019 10 16 0.00 0.00
6:53 pm 18:53 Clear 67 19.4 56 13.3 68 68 E 6 9 30.10 1019 10 16 0.00 0.00
7:53 pm 19:53 Clear 66 18.9 56 13.3 70 70 Calm 30.11 1020 10 16 0.00 0.00
8:53 pm 20:53 Clear 66 18.9 56 13.3 70 70 ESE 3 6 30.11 1020 10 16 0.00 0.00
9:53 pm 21:53 Clear 69 20.6 56 13.3 63 63 VRB 3 6 30.10 1019 10 16 0.00 0.00
10:53 pm 22:53 Clear 67 19.4 56 13.3 68 68 Calm 30.09 1019 10 16 0.00 0.00
11:53 pm 23:53 Partly Cloudy 67 19.4 57 13.9 71 71 Calm 30.07 1018 10 16 0.00 0.00

Powered by AerisWeather